| time (UTC) | temp F | wind direction | speed MPH | gust MPH | rain 1hr in | rain 24hr in | rain mn in | humidity % | barometer mb |
| 20260905025543 | 66 | 319 | 1.0 | 4.0 | 0.01 | 0.15 | 0.14 | 83 | 1014.9 |
| 20260905025315 | 66 | 357 | 0.0 | 4.0 | 0.01 | 0.15 | 0.14 | 83 | 1014.8 |
| 20260905024540 | 66 | 7 | 0.0 | 4.0 | 0.01 | 0.15 | 0.14 | 82 | 1014.8 |
| 20260905024042 | 66 | 334 | 1.0 | 5.0 | 0.01 | 0.15 | 0.14 | 82 | 1014.9 |
| 20260905023541 | 66 | 305 | 2.0 | 5.0 | 0.01 | 0.15 | 0.14 | 82 | 1015.0 |
| 20260905023041 | 66 | 0 | 2.0 | 6.0 | 0.01 | 0.16 | 0.14 | 82 | 1015.0 |
| 20260905022541 | 66 | 299 | 2.0 | 7.0 | 0.01 | 0.16 | 0.14 | 82 | 1015.0 |
| 20260905022040 | 66 | 286 | 2.0 | 7.0 | 0.01 | 0.16 | 0.14 | 83 | 1015.0 |
| 20260905021540 | 67 | 255 | 1.0 | 4.0 | 0.01 | 0.16 | 0.14 | 83 | 1014.9 |
| 20260905021041 | 67 | 27 | 1.0 | 4.0 | 0.01 | 0.16 | 0.13 | 84 | 1014.8 |
| 20260905020540 | 67 | 296 | 1.0 | 4.0 | 0.00 | 0.16 | 0.13 | 84 | 1015.0 |
| 20260905020316 | 67 | 312 | 0.0 | 7.0 | 0.00 | 0.17 | 0.13 | 83 | 1015.0 |
| 20260905015814 | 67 | 312 | 2.0 | 7.0 | 0.00 | 0.17 | 0.13 | 83 | 1014.9 |
| 20260905015041 | 67 | 18 | 3.0 | 5.0 | 0.00 | 0.17 | 0.13 | 83 | 1014.9 |
| 20260905014540 | 67 | 39 | 0.0 | 4.0 | 0.00 | 0.17 | 0.13 | 84 | 1014.9 |
| 20260905014041 | 67 | 324 | 2.0 | 4.0 | 0.00 | 0.17 | 0.13 | 84 | 1015.0 |
| 20260905013541 | 67 | 358 | 1.0 | 4.0 | 0.00 | 0.17 | 0.13 | 84 | 1015.0 |
| 20260905013308 | 67 | 274 | 1.0 | 4.0 | 0.00 | 0.17 | 0.13 | 83 | 1015.0 |
| 20260905012814 | 67 | 3 | 2.0 | 4.0 | 0.00 | 0.18 | 0.13 | 84 | 1015.1 |
| 20260905012317 | 68 | 255 | 0.0 | 9.0 | 0.00 | 0.18 | 0.13 | 84 | 1015.2 |
| 20260905011540 | 68 | 44 | 2.0 | 9.0 | 0.00 | 0.18 | 0.13 | 83 | 1015.2 |
| 20260905011532 | 68 | 331 | 2.0 | 6.0 | 0.00 | 0.18 | 0.13 | 83 | 1015.2 |
| 20260905010800 | 68 | 261 | 2.0 | 5.0 | 0.00 | 0.18 | 0.13 | 83 | 1015.2 |
| 20260905010041 | 68 | 27 | 1.0 | 5.0 | 0.00 | 0.19 | 0.13 | 82 | 1015.3 |
| 20260905005541 | 68 | 300 | 1.0 | 7.0 | 0.00 | 0.19 | 0.13 | 82 | 1015.3 |
| 20260905005040 | 68 | 338 | 2.0 | 7.0 | 0.00 | 0.19 | 0.13 | 81 | 1015.1 |
| 20260905004542 | 69 | 330 | 2.0 | 6.0 | 0.00 | 0.19 | 0.13 | 81 | 1015.1 |
| 20260905004537 | 69 | 314 | 2.0 | 6.0 | 0.00 | 0.19 | 0.13 | 81 | 1015.1 |
| 20260905003540 | 69 | 302 | 2.0 | 5.0 | 0.00 | 0.20 | 0.13 | 81 | 1015.1 |
| 20260905003040 | 69 | 347 | 2.0 | 5.0 | 0.00 | 0.20 | 0.13 | 80 | 1015.1 |
| 20260905002540 | 69 | 243 | 1.0 | 5.0 | 0.00 | 0.20 | 0.13 | 79 | 1015.0 |
| 20260905002041 | 69 | 286 | 0.0 | 3.0 | 0.01 | 0.20 | 0.13 | 79 | 1014.9 |
| 20260905001540 | 70 | 338 | 0.0 | 5.0 | 0.01 | 0.20 | 0.13 | 78 | 1014.8 |
| 20260905001040 | 70 | 75 | 1.0 | 5.0 | 0.01 | 0.21 | 0.13 | 78 | 1014.7 |
| 20260905000540 | 70 | 351 | 0.0 | 4.0 | 0.01 | 0.21 | 0.13 | 78 | 1014.8 |
| 20260905000040 | 70 | 90 | 1.0 | 6.0 | 0.01 | 0.21 | 0.13 | 78 | 1014.8 |
| 20260904235540 | 70 | 334 | 0.0 | 10.0 | 0.01 | 0.20 | 0.13 | 77 | 1014.7 |
| 20260904235040 | 70 | 269 | 2.0 | 10.0 | 0.01 | 0.21 | 0.13 | 76 | 1014.6 |
| 20260904234542 | 71 | 7 | 1.0 | 5.0 | 0.01 | 0.21 | 0.13 | 75 | 1014.5 |
| 20260904234040 | 71 | 278 | 0.0 | 7.0 | 0.01 | 0.21 | 0.13 | 76 | 1014.6 |
| 20260904233540 | 71 | 355 | 3.0 | 7.0 | 0.01 | 0.21 | 0.13 | 74 | 1014.7 |
| 20260904233040 | 71 | 268 | 0.0 | 6.0 | 0.01 | 0.22 | 0.13 | 75 | 1014.7 |
| 20260904232813 | 71 | 265 | 0.0 | 3.0 | 0.01 | 0.22 | 0.13 | 75 | 1014.7 |
| 20260904232040 | 72 | 54 | 0.0 | 3.0 | 0.00 | 0.22 | 0.12 | 75 | 1014.6 |
| 20260904231541 | 72 | 354 | 0.0 | 2.0 | 0.00 | 0.22 | 0.12 | 74 | 1014.5 |
| 20260904231040 | 72 | 23 | 0.0 | 2.0 | 0.00 | 0.22 | 0.12 | 74 | 1014.6 |
| 20260904230540 | 72 | 41 | 0.0 | 2.0 | 0.00 | 0.23 | 0.12 | 74 | 1014.6 |
| 20260904230040 | 73 | 310 | 1.0 | 2.0 | 0.00 | 0.23 | 0.12 | 74 | 1014.5 |
| 20260904225815 | 73 | 351 | 0.0 | 1.0 | 0.00 | 0.23 | 0.12 | 74 | 1014.5 |
| 20260904225316 | 73 | 353 | 0.0 | 1.0 | 0.00 | 0.24 | 0.12 | 74 | 1014.2 |
| 20260904224540 | 73 | 338 | 0.0 | 4.0 | 0.00 | 0.24 | 0.12 | 74 | 1014.4 |
| 20260904224040 | 73 | 327 | 1.0 | 4.0 | 0.00 | 0.24 | 0.12 | 73 | 1014.4 |
| 20260904223818 | 73 | 24 | 0.0 | 1.0 | 0.00 | 0.24 | 0.12 | 73 | 1014.4 |
| 20260904223040 | 74 | 317 | 0.0 | 0.0 | 0.00 | 0.25 | 0.12 | 73 | 1014.2 |
| 20260904222540 | 74 | 317 | 0.0 | 3.0 | 0.00 | 0.25 | 0.12 | 72 | 1014.4 |
| 20260904222040 | 74 | 58 | 1.0 | 3.0 | 0.00 | 0.25 | 0.12 | 71 | 1014.1 |
| 20260904221540 | 74 | 348 | 0.0 | 4.0 | 0.00 | 0.25 | 0.12 | 72 | 1014.2 |
| 20260904221040 | 74 | 274 | 1.0 | 4.0 | 0.00 | 0.26 | 0.12 | 70 | 1014.0 |
| 20260904220541 | 75 | 306 | 1.0 | 4.0 | 0.01 | 0.26 | 0.12 | 70 | 1014.1 |
| 20260904220040 | 75 | 276 | 0.0 | 5.0 | 0.01 | 0.26 | 0.12 | 70 | 1014.0 |
| 20260904215541 | 75 | 35 | 2.0 | 7.0 | 0.01 | 0.26 | 0.12 | 68 | 1014.0 |
| 20260904215041 | 76 | 340 | 2.0 | 7.0 | 0.01 | 0.26 | 0.12 | 68 | 1013.9 |
| 20260904214540 | 76 | 358 | 1.0 | 5.0 | 0.01 | 0.26 | 0.12 | 67 | 1014.0 |
| 20260904214040 | 77 | 61 | 1.0 | 9.0 | 0.01 | 0.27 | 0.12 | 66 | 1014.0 |
| 20260904213541 | 78 | 330 | 2.0 | 9.0 | 0.01 | 0.27 | 0.12 | 65 | 1014.0 |
| 20260904213042 | 78 | 274 | 0.0 | 9.0 | 0.01 | 0.27 | 0.12 | 67 | 1014.0 |
| 20260904212816 | 78 | 247 | 2.0 | 9.0 | 0.01 | 0.28 | 0.12 | 64 | 1014.0 |
| 20260904212039 | 78 | 310 | 0.0 | 6.0 | 0.01 | 0.28 | 0.12 | 65 | 1014.1 |
| 20260904211540 | 79 | 264 | 1.0 | 7.0 | 0.01 | 0.28 | 0.12 | 64 | 1014.0 |
| 20260904211040 | 78 | 1 | 2.0 | 7.0 | 0.01 | 0.29 | 0.12 | 64 | 1014.1 |
| 20260904210540 | 79 | 321 | 3.0 | 7.0 | 0.00 | 0.29 | 0.11 | 68 | 1014.2 |
| 20260904210040 | 79 | 20 | 2.0 | 7.0 | 0.00 | 0.29 | 0.11 | 65 | 1014.2 |
| 20260904205803 | 79 | 340 | 3.0 | 7.0 | 0.00 | 0.30 | 0.11 | 65 | 1014.2 |
| 20260904205307 | 79 | 269 | 2.0 | 7.0 | 0.00 | 0.30 | 0.11 | 65 | 1014.2 |
| 20260904204540 | 78 | 312 | 2.0 | 12.0 | 0.00 | 0.30 | 0.11 | 66 | 1014.2 |
| 20260904204039 | 78 | 337 | 2.0 | 12.0 | 0.00 | 0.31 | 0.11 | 67 | 1014.4 |
| 20260904204031 | 78 | 302 | 3.0 | 11.0 | 0.00 | 0.31 | 0.11 | 66 | 1014.5 |
| 20260904202541 | 77 | 45 | 2.0 | 5.0 | 0.00 | 0.32 | 0.11 | 67 | 1014.5 |
| 20260904202306 | 77 | 286 | 1.0 | 6.0 | 0.00 | 0.32 | 0.11 | 69 | 1014.6 |
| 20260904201540 | 77 | 298 | 2.0 | 7.0 | 0.00 | 0.33 | 0.11 | 67 | 1014.6 |
| 20260904201519 | 78 | 269 | 2.0 | 7.0 | 0.01 | 0.33 | 0.11 | 66 | 1014.7 |
| 20260904200804 | 78 | 300 | 1.0 | 9.0 | 0.01 | 0.33 | 0.11 | 68 | 1014.7 |
| 20260904200040 | 78 | 300 | 3.0 | 9.0 | 0.01 | 0.34 | 0.11 | 65 | 1014.6 |
| 20260904195540 | 78 | 326 | 2.0 | 10.0 | 0.01 | 0.33 | 0.11 | 66 | 1014.7 |
| 20260904195040 | 79 | 283 | 2.0 | 10.0 | 0.01 | 0.34 | 0.11 | 65 | 1014.8 |
| 20260904194817 | 79 | 320 | 2.0 | 10.0 | 0.01 | 0.34 | 0.11 | 66 | 1014.8 |
| 20260904194529 | 79 | 266 | 2.0 | 10.0 | 0.01 | 0.34 | 0.11 | 65 | 1014.7 |
| 20260904193806 | 79 | 286 | 3.0 | 11.0 | 0.01 | 0.35 | 0.11 | 64 | 1014.8 |
| 20260904193041 | 79 | 288 | 5.0 | 11.0 | 0.01 | 0.35 | 0.11 | 62 | 1014.8 |
| 20260904192540 | 80 | 313 | 2.0 | 9.0 | 0.01 | 0.36 | 0.11 | 62 | 1014.8 |
| 20260904192040 | 80 | 265 | 2.0 | 10.0 | 0.01 | 0.36 | 0.11 | 62 | 1014.9 |
| 20260904191747 | 80 | 302 | 1.0 | 18.0 | 0.01 | 0.36 | 0.10 | 63 | 1014.8 |
| 20260904190540 | 80 | 278 | 8.0 | 16.0 | 0.00 | 0.37 | 0.10 | 65 | 1015.0 |
| 20260904190040 | 80 | 293 | 2.0 | 12.0 | 0.00 | 0.38 | 0.10 | 68 | 1015.3 |
| 20260904185540 | 79 | 300 | 6.0 | 12.0 | 0.00 | 0.38 | 0.10 | 67 | 1015.2 |
| 20260904185528 | 79 | 278 | 7.0 | 11.0 | 0.00 | 0.39 | 0.10 | 65 | 1015.1 |
| 20260904184540 | 79 | 207 | 5.0 | 11.0 | 0.00 | 0.39 | 0.10 | 64 | 1015.2 |
| 20260904184040 | 79 | 319 | 2.0 | 10.0 | 0.00 | 0.40 | 0.10 | 71 | 1015.1 |
| 20260904183540 | 79 | 248 | 2.0 | 10.0 | 0.00 | 0.40 | 0.10 | 67 | 1015.2 |
| 20260904183041 | 78 | 230 | 4.0 | 10.0 | 0.00 | 0.41 | 0.10 | 67 | 1015.3 |
| 20260904182618 | 78 | 269 | 2.0 | 7.0 | 0.00 | 0.41 | 0.10 | 69 | 1015.6 |
| 20260904182541 | 78 | 331 | 5.0 | 9.0 | 0.00 | 0.41 | 0.10 | 69 | 1015.4 |
| 20260904181544 | 78 | 286 | 3.0 | 12.0 | 0.00 | 0.42 | 0.10 | 69 | 1015.6 |
| 20260904181540 | 78 | 272 | 4.0 | 9.0 | 0.00 | 0.42 | 0.10 | 70 | 1015.6 |
| 20260904175539 | 78 | 230 | 2.0 | 7.0 | 0.00 | 0.44 | 0.10 | 69 | 1015.8 |
| 20260904175521 | 78 | 289 | 3.0 | 9.0 | 0.00 | 0.44 | 0.10 | 67 | 1015.9 |
| 20260904174540 | 78 | 326 | 3.0 | 11.0 | 0.00 | 0.45 | 0.10 | 67 | 1015.7 |
| 20260904174040 | 78 | 310 | 6.0 | 11.0 | 0.00 | 0.45 | 0.10 | 69 | 1015.9 |
| 20260904173814 | 78 | 320 | 4.0 | 9.0 | 0.00 | 0.45 | 0.10 | 67 | 1015.9 |
| 20260904173532 | 78 | 20 | 5.0 | 9.0 | 0.00 | 0.46 | 0.10 | 67 | 1016.0 |
| 20260904171040 | 77 | 281 | 4.0 | 12.0 | 0.00 | 0.48 | 0.10 | 70 | 1016.5 |
| 20260904170540 | 77 | 271 | 4.0 | 7.0 | 0.00 | 0.48 | 0.10 | 72 | 1016.2 |
| 20260904170059 | 76 | 238 | 4.0 | 11.0 | 0.01 | 0.48 | 0.10 | 69 | 1016.1 |
| 20260904170051 | 77 | 345 | 5.0 | 11.0 | 0.01 | 0.49 | 0.10 | 69 | 1016.1 |
| 20260904165316 | 76 | 330 | 2.0 | 7.0 | 0.01 | 0.49 | 0.10 | 72 | 1016.1 |
| 20260904164539 | 76 | 274 | 3.0 | 9.0 | 0.01 | 0.49 | 0.10 | 69 | 1016.2 |
| 20260904164040 | 76 | 353 | 4.0 | 9.0 | 0.01 | 0.50 | 0.10 | 70 | 1016.2 |
| 20260904163540 | 76 | 321 | 4.0 | 7.0 | 0.01 | 0.50 | 0.10 | 71 | 1016.2 |
| 20260904163306 | 75 | 248 | 2.0 | 7.0 | 0.01 | 0.50 | 0.10 | 73 | 1016.2 |
| 20260904162039 | 75 | 340 | 0.0 | 7.0 | 0.01 | 0.51 | 0.10 | 72 | 1016.5 |
| 20260904161540 | 75 | 281 | 0.0 | 7.0 | 0.01 | 0.52 | 0.10 | 73 | 1016.6 |
| 20260904161039 | 75 | 265 | 2.0 | 7.0 | 0.01 | 0.52 | 0.10 | 72 | 1016.7 |
| 20260904160540 | 75 | 331 | 1.0 | 6.0 | 0.01 | 0.52 | 0.10 | 73 | 1016.7 |
| 20260904160040 | 75 | 312 | 1.0 | 5.0 | 0.00 | 0.53 | 0.09 | 74 | 1016.6 |
| 20260904155815 | 74 | 0 | 1.0 | 6.0 | 0.00 | 0.53 | 0.09 | 74 | 1016.5 |
| 20260904155042 | 74 | 299 | 2.0 | 6.0 | 0.00 | 0.53 | 0.09 | 72 | 1016.6 |
| 20260904154540 | 74 | 282 | 1.0 | 5.0 | 0.00 | 0.53 | 0.09 | 72 | 1016.6 |
| 20260904154040 | 74 | 305 | 1.0 | 4.0 | 0.00 | 0.54 | 0.09 | 74 | 1016.5 |
| 20260904153540 | 74 | 281 | 0.0 | 15.0 | 0.00 | 0.54 | 0.09 | 72 | 1016.6 |
| 20260904153040 | 74 | 286 | 1.0 | 15.0 | 0.00 | 0.54 | 0.09 | 72 | 1016.6 |
| 20260904152540 | 74 | 310 | 6.0 | 15.0 | 0.00 | 0.54 | 0.09 | 72 | 1016.4 |
| 20260904152053 | 74 | 248 | 7.0 | 11.0 | 0.00 | 0.55 | 0.09 | 71 | 1016.4 |
| 20260904152047 | 74 | 262 | 6.0 | 11.0 | 0.00 | 0.55 | 0.09 | 72 | 1016.5 |
| 20260904151040 | 74 | 283 | 3.0 | 9.0 | 0.00 | 0.55 | 0.09 | 73 | 1016.2 |
| 20260904150541 | 74 | 312 | 2.0 | 12.0 | 0.00 | 0.55 | 0.09 | 73 | 1016.2 |
| 20260904150042 | 73 | 305 | 4.0 | 12.0 | 0.00 | 0.56 | 0.09 | 76 | 1016.2 |
| 20260904145539 | 73 | 289 | 0.0 | 4.0 | 0.00 | 0.56 | 0.09 | 77 | 1016.1 |
| 20260904145039 | 73 | 274 | 1.0 | 6.0 | 0.00 | 0.56 | 0.09 | 75 | 1016.1 |
| 20260904144539 | 73 | 28 | 2.0 | 6.0 | 0.00 | 0.56 | 0.09 | 75 | 1016.4 |
| 20260904144039 | 73 | 76 | 2.0 | 6.0 | 0.00 | 0.57 | 0.09 | 77 | 1016.0 |
| 20260904143814 | 72 | 333 | 1.0 | 6.0 | 0.00 | 0.57 | 0.09 | 80 | 1016.0 |
| 20260904143317 | 72 | 283 | 3.0 | 5.0 | 0.00 | 0.57 | 0.09 | 80 | 1015.9 |
| 20260904142540 | 71 | 117 | 1.0 | 6.0 | 0.00 | 0.57 | 0.09 | 83 | 1015.9 |
| 20260904142039 | 71 | 317 | 3.0 | 6.0 | 0.00 | 0.57 | 0.09 | 81 | 1016.1 |
| 20260904141539 | 71 | 358 | 1.0 | 5.0 | 0.00 | 0.58 | 0.09 | 80 | 1016.2 |
| 20260904141125 | 71 | 0 | 2.0 | 9.0 | 0.00 | 0.58 | 0.09 | 81 | 1016.5 |
| 20260904141040 | 71 | 54 | 2.0 | 9.0 | 0.00 | 0.58 | 0.09 | 81 | 1016.2 |
| 20260904140041 | 71 | 316 | 4.0 | 10.0 | 0.01 | 0.58 | 0.09 | 81 | 1016.4 |
| 20260904140025 | 71 | 255 | 6.0 | 10.0 | 0.01 | 0.57 | 0.09 | 82 | 1016.4 |
| 20260904135039 | 71 | 288 | 3.0 | 9.0 | 0.01 | 0.58 | 0.09 | 84 | 1016.5 |
| 20260904134542 | 71 | 295 | 1.0 | 10.0 | 0.01 | 0.58 | 0.09 | 86 | 1016.6 |
| 20260904134538 | 71 | 344 | 3.0 | 10.0 | 0.01 | 0.58 | 0.09 | 85 | 1016.6 |
| 20260904133539 | 71 | 269 | 1.0 | 5.0 | 0.01 | 0.58 | 0.09 | 86 | 1016.4 |
| 20260904133039 | 71 | 341 | 2.0 | 7.0 | 0.01 | 0.58 | 0.09 | 87 | 1016.4 |
| 20260904132539 | 71 | 317 | 1.0 | 7.0 | 0.01 | 0.58 | 0.09 | 86 | 1016.4 |
| 20260904132039 | 71 | 237 | 2.0 | 9.0 | 0.01 | 0.59 | 0.09 | 86 | 1016.2 |
| 20260904131815 | 71 | 305 | 2.0 | 9.0 | 0.01 | 0.59 | 0.09 | 85 | 1016.1 |
| 20260904131041 | 71 | 338 | 2.0 | 4.0 | 0.01 | 0.59 | 0.09 | 87 | 1016.0 |
| 20260904130814 | 71 | 210 | 1.0 | 4.0 | 0.01 | 0.59 | 0.09 | 87 | 1016.2 |
| 20260904130039 | 70 | 275 | 1.0 | 4.0 | 0.00 | 0.60 | 0.08 | 89 | 1016.0 |
| 20260904125539 | 70 | 293 | 0.0 | 4.0 | 0.00 | 0.60 | 0.08 | 90 | 1015.9 |
| 20260904125040 | 70 | 62 | 1.0 | 5.0 | 0.00 | 0.60 | 0.08 | 90 | 1016.0 |
| 20260904124540 | 69 | 336 | 1.0 | 5.0 | 0.00 | 0.60 | 0.08 | 92 | 1016.1 |
| 20260904124313 | 69 | 307 | 1.0 | 5.0 | 0.00 | 0.60 | 0.08 | 93 | 1016.4 |
| 20260904123539 | 69 | 306 | 0.0 | 5.0 | 0.00 | 0.60 | 0.08 | 93 | 1016.4 |
| 20260904123039 | 69 | 286 | 1.0 | 4.0 | 0.01 | 0.60 | 0.08 | 93 | 1016.1 |
| 20260904122539 | 68 | 286 | 2.0 | 4.0 | 0.01 | 0.60 | 0.08 | 94 | 1016.1 |
| 20260904122039 | 68 | 276 | 1.0 | 3.0 | 0.01 | 0.60 | 0.08 | 94 | 1016.0 |
| 20260904121540 | 68 | 276 | 1.0 | 5.0 | 0.01 | 0.60 | 0.08 | 95 | 1016.1 |
| 20260904121040 | 68 | 276 | 1.0 | 5.0 | 0.01 | 0.60 | 0.08 | 95 | 1016.0 |
| 20260904120539 | 67 | 276 | 0.0 | 4.0 | 0.01 | 0.60 | 0.08 | 95 | 1016.0 |
| 20260904120040 | 67 | 271 | 3.0 | 4.0 | 0.01 | 0.60 | 0.08 | 95 | 1016.0 |
| 20260904115539 | 67 | 37 | 0.0 | 3.0 | 0.01 | 0.59 | 0.08 | 95 | 1016.0 |
| 20260904115039 | 67 | 295 | 0.0 | 2.0 | 0.01 | 0.59 | 0.08 | 95 | 1015.9 |
| 20260904114539 | 67 | 302 | 0.0 | 4.0 | 0.01 | 0.60 | 0.08 | 95 | 1015.9 |
| 20260904114039 | 67 | 261 | 0.0 | 4.0 | 0.01 | 0.60 | 0.08 | 95 | 1015.8 |
| 20260904113541 | 67 | 358 | 1.0 | 3.0 | 0.01 | 0.60 | 0.07 | 95 | 1016.0 |
| 20260904113039 | 67 | 279 | 1.0 | 3.0 | 0.00 | 0.60 | 0.07 | 95 | 1015.9 |
| 20260904112817 | 67 | 331 | 0.0 | 3.0 | 0.00 | 0.60 | 0.07 | 95 | 1015.9 |
| 20260904112039 | 67 | 49 | 0.0 | 3.0 | 0.00 | 0.60 | 0.07 | 95 | 1015.8 |
| 20260904111541 | 67 | 89 | 1.0 | 3.0 | 0.00 | 0.61 | 0.07 | 95 | 1015.8 |
| 20260904111537 | 67 | 298 | 0.0 | 1.0 | 0.01 | 0.61 | 0.07 | 95 | 1015.9 |
| 20260904110539 | 67 | 298 | 0.0 | 1.0 | 0.01 | 0.61 | 0.07 | 95 | 1016.0 |
| 20260904110315 | 67 | 298 | 0.0 | 1.0 | 0.01 | 0.61 | 0.07 | 95 | 1015.8 |
| 20260904105540 | 67 | 298 | 0.0 | 2.0 | 0.01 | 0.60 | 0.07 | 95 | 1015.8 |
| 20260904105039 | 67 | 298 | 0.0 | 2.0 | 0.01 | 0.60 | 0.07 | 95 | 1016.0 |
| 20260904104539 | 67 | 298 | 0.0 | 2.0 | 0.01 | 0.61 | 0.07 | 95 | 1015.9 |
| 20260904104040 | 67 | 298 | 1.0 | 2.0 | 0.01 | 0.61 | 0.07 | 95 | 1015.8 |
| 20260904103539 | 67 | 298 | 0.0 | 2.0 | 0.01 | 0.61 | 0.07 | 95 | 1015.7 |
| 20260904103041 | 67 | 298 | 0.0 | 2.0 | 0.01 | 0.61 | 0.07 | 94 | 1015.6 |
| 20260904102539 | 67 | 298 | 1.0 | 3.0 | 0.01 | 0.61 | 0.07 | 94 | 1015.6 |
| 20260904102039 | 67 | 298 | 1.0 | 3.0 | 0.01 | 0.62 | 0.07 | 95 | 1015.6 |
| 20260904101539 | 67 | 298 | 2.0 | 4.0 | 0.01 | 0.62 | 0.07 | 95 | 1015.6 |
| 20260904101039 | 67 | 298 | 2.0 | 4.0 | 0.01 | 0.62 | 0.06 | 94 | 1015.6 |
| 20260904100539 | 67 | 298 | 2.0 | 6.0 | 0.01 | 0.62 | 0.06 | 94 | 1015.6 |
| 20260904100039 | 67 | 298 | 3.0 | 6.0 | 0.01 | 0.62 | 0.06 | 95 | 1015.6 |
| 20260904095539 | 67 | 286 | 3.0 | 4.0 | 0.01 | 0.61 | 0.06 | 94 | 1015.6 |
| 20260904095040 | 67 | 295 | 2.0 | 4.0 | 0.01 | 0.62 | 0.06 | 94 | 1015.4 |
| 20260904094540 | 67 | 292 | 2.0 | 3.0 | 0.01 | 0.62 | 0.06 | 94 | 1015.4 |
| 20260904094040 | 67 | 292 | 0.0 | 4.0 | 0.01 | 0.62 | 0.06 | 94 | 1015.5 |
| 20260904093539 | 67 | 292 | 2.0 | 4.0 | 0.01 | 0.62 | 0.06 | 94 | 1015.6 |
| 20260904093039 | 67 | 299 | 1.0 | 3.0 | 0.01 | 0.62 | 0.06 | 94 | 1015.5 |
| 20260904092539 | 67 | 299 | 1.0 | 2.0 | 0.01 | 0.63 | 0.06 | 94 | 1015.6 |
| 20260904092040 | 67 | 299 | 0.0 | 2.0 | 0.01 | 0.63 | 0.06 | 94 | 1015.5 |
| 20260904091539 | 67 | 299 | 0.0 | 2.0 | 0.01 | 0.63 | 0.06 | 94 | 1015.5 |
| 20260904091040 | 67 | 299 | 0.0 | 4.0 | 0.01 | 0.63 | 0.05 | 94 | 1015.4 |
| 20260904090539 | 67 | 299 | 2.0 | 4.0 | 0.01 | 0.63 | 0.05 | 94 | 1015.4 |
| 20260904090040 | 67 | 299 | 1.0 | 4.0 | 0.01 | 0.63 | 0.05 | 94 | 1015.4 |
| 20260904085812 | 67 | 299 | 2.0 | 4.0 | 0.01 | 0.62 | 0.05 | 94 | 1015.3 |
| 20260904085039 | 67 | 299 | 3.0 | 4.0 | 0.01 | 0.62 | 0.05 | 94 | 1015.3 |
| 20260904084539 | 67 | 299 | 3.0 | 5.0 | 0.01 | 0.62 | 0.05 | 94 | 1015.3 |
| 20260904084039 | 67 | 299 | 3.0 | 5.0 | 0.01 | 0.62 | 0.05 | 94 | 1015.3 |
| 20260904083538 | 67 | 281 | 2.0 | 4.0 | 0.01 | 0.62 | 0.05 | 94 | 1015.2 |
| 20260904083058 | 68 | 281 | 1.0 | 4.0 | 0.01 | 0.63 | 0.05 | 94 | 1015.1 |
| 20260904083050 | 68 | 281 | 1.0 | 4.0 | 0.01 | 0.63 | 0.05 | 94 | 1015.1 |
| 20260904082039 | 68 | 281 | 2.0 | 4.0 | 0.01 | 0.63 | 0.05 | 94 | 1015.0 |
| 20260904081539 | 68 | 281 | 2.0 | 5.0 | 0.02 | 0.63 | 0.05 | 93 | 1015.0 |
| 20260904081038 | 68 | 281 | 3.0 | 5.0 | 0.01 | 0.63 | 0.04 | 93 | 1015.0 |
| 20260904080539 | 68 | 281 | 2.0 | 5.0 | 0.01 | 0.63 | 0.04 | 93 | 1014.9 |
| 20260904080039 | 68 | 272 | 0.0 | 2.0 | 0.01 | 0.63 | 0.04 | 93 | 1015.0 |
| 20260904075539 | 68 | 272 | 0.0 | 4.0 | 0.01 | 0.62 | 0.04 | 93 | 1015.0 |
| 20260904075039 | 68 | 272 | 1.0 | 4.0 | 0.01 | 0.62 | 0.04 | 93 | 1015.0 |
| 20260904074539 | 68 | 296 | 1.0 | 3.0 | 0.01 | 0.62 | 0.04 | 93 | 1015.1 |
| 20260904074039 | 68 | 296 | 2.0 | 3.0 | 0.01 | 0.62 | 0.04 | 93 | 1015.1 |
| 20260904073540 | 68 | 296 | 2.0 | 4.0 | 0.01 | 0.62 | 0.04 | 93 | 1015.1 |
| 20260904073038 | 68 | 296 | 3.0 | 4.0 | 0.01 | 0.62 | 0.04 | 94 | 1015.1 |
| 20260904072539 | 68 | 296 | 2.0 | 4.0 | 0.02 | 0.62 | 0.04 | 94 | 1015.0 |
| 20260904072039 | 68 | 296 | 2.0 | 4.0 | 0.02 | 0.62 | 0.03 | 94 | 1014.8 |
| 20260904071813 | 68 | 296 | 2.0 | 6.0 | 0.01 | 0.62 | 0.03 | 93 | 1014.8 |
| 20260904071315 | 68 | 268 | 3.0 | 7.0 | 0.01 | 0.62 | 0.03 | 93 | 1014.7 |
| 20260904070539 | 68 | 268 | 5.0 | 7.0 | 0.01 | 0.62 | 0.03 | 93 | 1014.7 |
| 20260904070039 | 68 | 290 | 4.0 | 6.0 | 0.01 | 0.62 | 0.03 | 93 | 1014.7 |
| 20260904065539 | 68 | 274 | 2.0 | 6.0 | 0.01 | 0.61 | 0.03 | 93 | 1014.5 |
| 20260904065038 | 68 | 283 | 2.0 | 4.0 | 0.01 | 0.61 | 0.03 | 93 | 1014.4 |
| 20260904064817 | 68 | 283 | 2.0 | 3.0 | 0.01 | 0.61 | 0.03 | 93 | 1014.4 |
| 20260904064039 | 68 | 283 | 1.0 | 4.0 | 0.01 | 0.61 | 0.03 | 93 | 1014.4 |
| 20260904063538 | 68 | 283 | 2.0 | 4.0 | 0.01 | 0.61 | 0.03 | 93 | 1014.5 |
| 20260904063312 | 68 | 295 | 1.0 | 4.0 | 0.01 | 0.61 | 0.03 | 93 | 1014.4 |
| 20260904062539 | 68 | 295 | 2.0 | 4.0 | 0.00 | 0.61 | 0.02 | 93 | 1014.4 |
| 20260904062039 | 68 | 293 | 1.0 | 4.0 | 0.00 | 0.61 | 0.02 | 93 | 1014.5 |
| 20260904061539 | 68 | 317 | 1.0 | 7.0 | 0.00 | 0.61 | 0.02 | 93 | 1014.5 |
| 20260904061039 | 68 | 285 | 3.0 | 7.0 | 0.01 | 0.61 | 0.02 | 93 | 1014.6 |
| 20260904060539 | 68 | 306 | 3.0 | 9.0 | 0.01 | 0.61 | 0.02 | 92 | 1014.5 |
| 20260904060038 | 68 | 281 | 3.0 | 9.0 | 0.01 | 0.61 | 0.02 | 92 | 1014.5 |
| 20260904060032 | 68 | 275 | 4.0 | 9.0 | 0.01 | 0.60 | 0.02 | 92 | 1014.6 |
| 20260904055300 | 68 | 299 | 4.0 | 9.0 | 0.01 | 0.60 | 0.02 | 92 | 1014.6 |
| 20260904054538 | 69 | 298 | 3.0 | 6.0 | 0.01 | 0.60 | 0.02 | 92 | 1014.7 |
| 20260904054319 | 69 | 296 | 4.0 | 7.0 | 0.01 | 0.60 | 0.02 | 91 | 1014.7 |
| 20260904054307 | 69 | 316 | 4.0 | 6.0 | 0.01 | 0.60 | 0.02 | 91 | 1014.7 |
| 20260904053310 | 69 | 286 | 2.0 | 7.0 | 0.01 | 0.60 | 0.02 | 91 | 1014.6 |
| 20260904052539 | 69 | 283 | 3.0 | 6.0 | 0.01 | 0.60 | 0.02 | 91 | 1014.7 |
| 20260904052039 | 69 | 323 | 2.0 | 9.0 | 0.02 | 0.60 | 0.02 | 91 | 1014.8 |
| 20260904051539 | 69 | 313 | 2.0 | 9.0 | 0.02 | 0.60 | 0.02 | 91 | 1014.8 |
| 20260904051039 | 69 | 276 | 6.0 | 9.0 | 0.01 | 0.60 | 0.01 | 91 | 1015.0 |
| 20260904050538 | 69 | 283 | 4.0 | 6.0 | 0.01 | 0.60 | 0.01 | 91 | 1015.0 |
| 20260904050039 | 69 | 285 | 4.0 | 6.0 | 0.01 | 0.60 | 0.01 | 90 | 1014.8 |
| 20260904045543 | 69 | 289 | 4.0 | 7.0 | 0.01 | 0.59 | 0.01 | 90 | 1014.9 |
| 20260904045315 | 70 | 289 | 4.0 | 9.0 | 0.01 | 0.59 | 0.01 | 90 | 1014.9 |
| 20260904045030 | 70 | 283 | 4.0 | 9.0 | 0.01 | 0.59 | 0.01 | 90 | 1014.8 |
| 20260904044310 | 70 | 298 | 4.0 | 7.0 | 0.02 | 0.59 | 0.01 | 90 | 1014.8 |
| 20260904043538 | 70 | 290 | 4.0 | 9.0 | 0.02 | 0.59 | 0.01 | 90 | 1014.9 |
| 20260904043038 | 70 | 279 | 4.0 | 9.0 | 0.02 | 0.59 | 0.01 | 89 | 1015.0 |
| 20260904042801 | 70 | 293 | 4.0 | 9.0 | 0.02 | 0.59 | 0.01 | 89 | 1014.9 |
| 20260904042039 | 70 | 290 | 4.0 | 9.0 | 0.01 | 0.60 | 0.00 | 89 | 1014.8 |
| 20260904041538 | 70 | 309 | 4.0 | 7.0 | 0.01 | 0.60 | 0.00 | 89 | 1014.9 |
| 20260904041039 | 70 | 292 | 4.0 | 10.0 | 0.01 | 0.60 | 0.00 | 89 | 1014.8 |
| 20260904040537 | 70 | 293 | 5.0 | 10.0 | 0.02 | 0.60 | 0.00 | 89 | 1014.9 |
| 20260904040038 | 71 | 0 | 5.0 | 9.0 | 0.02 | 0.60 | 0.00 | 89 | 1014.9 |
| 20260904035538 | 71 | 307 | 3.0 | 9.0 | 0.02 | 0.58 | 0.60 | 89 | 1015.0 |
| 20260904035407 | 71 | 289 | 4.0 | 9.0 | 0.02 | 0.58 | 0.60 | 89 | 1014.8 |
| 20260904035228 | 71 | 283 | 3.0 | 10.0 | 0.02 | 0.58 | 0.59 | 89 | 1014.9 |
| 20260904034039 | 71 | 309 | 4.0 | 14.0 | 0.01 | 0.58 | 0.59 | 89 | 1014.9 |
| 20260904033811 | 71 | 266 | 7.0 | 16.0 | 0.02 | 0.58 | 0.59 | 89 | 1015.0 |
| 20260904033039 | 71 | 0 | 9.0 | 17.0 | 0.02 | 0.58 | 0.59 | 89 | 1015.0 |
| 20260904033016 | 71 | 0 | 10.0 | 17.0 | 0.02 | 0.58 | 0.59 | 89 | 1015.0 |
| 20260904032038 | 71 | 282 | 11.0 | 15.0 | 0.02 | 0.58 | 0.59 | 90 | 1015.0 |
| 20260904031814 | 71 | 271 | 8.0 | 13.0 | 0.02 | 0.58 | 0.59 | 91 | 1014.9 |
| 20260904031039 | 72 | 0 | 7.0 | 13.0 | 0.02 | 0.58 | 0.59 | 92 | 1015.0 |
| 20260904030817 | 72 | 257 | 6.0 | 12.0 | 0.01 | 0.58 | 0.58 | 92 | 1014.9 |
| 20260904030245 | 72 | 0 | 7.0 | 13.0 | 0.02 | 0.58 | 0.58 | 92 | 1014.8 |